[[{"header":{"parameterUnit":"m.s-1","parameterCategory":1,"la1":30.2991,"la2":30.254,"lo1":-89.0895,"lo2":-89.0444,"dy":0.0017,"dx":0.0017,"nx":28,"ny":28,"refTime":"2024-08-02T21:00:00:Z","depth":0,"parameterNumber":2,"parameterNumberName":"U-component_of_WINDS"},"data":[0,0,0,0,0,0,0,0,0,0,0,0,0,0,0,0,0,0,0,0,0,0,0,0,0,0,0,0,0,0,0,0,0,0,0,0,0,0,0,0,0,0,0,0,0,0,0,0,0,0,0,0,0,0,0,0,0,0,2.3782,2.3782,0,2.3779,2.3779,2.3779,2.3705,2.3703,2.3701,2.3699,2.3697,2.3699,2.3701,0,0,0,0,0,0,0,0,0,0,0,0,0,2.3728,2.3729,2.3782,2.3782,2.3782,2.3779,2.3779,2.3779,2.3705,2.3703,2.37,2.3698,2.3697,2.3699,2.3701,0,0,0,0,0,0,0,0,0,0,0,0,0,2.3741,2.373,2.3782,2.3745,2.3741,2.3779,2.3779,2.3779,2.3705,2.3702,2.37,2.3697,2.3696,2.3698,2.3701,2.3775,0,0,2.3709,2.371,0,0,0,0,0,0,0,0,2.374,2.3743,2.375,2.3748,2.3744,2.3739,2.3759,2.3778,2.3706,2.3719,2.3699,2.3695,2.3714,2.3715,2.372,2.3775,2.3775,2.3709,2.3711,2.3712,2.3713,0,0,0,0,0,0,0,2.3739,2.3743,2.3781,2.3751,2.3747,2.3729,2.3728,2.3762,2.3733,2.3718,2.3712,2.3713,2.3711,2.3718,2.372,2.3775,2.3709,2.3712,2.3713,2.3714,2.3893,2.3896,0,0,0,0,0,0,2.3743,2.3742,2.3781,2.3781,2.3735,2.3733,2.3731,2.3744,2.3732,2.3727,2.3715,2.3709,2.3715,2.3717,2.3719,2.3808,2.3712,2.3714,2.3716,2.389,2.3894,2.3897,0,0,0,0,0,0,2.3742,2.3747,2.3781,2.376,2.3763,2.3737,2.3751,2.3745,2.3752,2.373,2.3725,2.3728,2.3713,2.3716,2.3762,2.3806,2.3716,2.3718,2.3886,2.3891,2.3896,2.3983,0,0,0,0,0,0,2.3741,2.3747,2.3774,2.3761,2.3765,2.3824,2.3754,2.3747,2.3756,2.3749,2.374,2.3736,2.3711,2.3759,2.3765,2.3808,2.372,2.3882,2.3889,2.3894,2.3976,2.3991,2.4003,0,0,0,0,0,2.3739,2.3799,2.3776,2.3781,2.3797,2.3826,2.3828,2.3797,2.376,2.3788,2.3774,2.3736,2.38,2.3764,2.377,2.3815,2.3879,2.3887,2.3894,2.3971,2.3988,2.4002,0,0,0,0,0,0,2.3817,2.3796,2.3771,2.3827,2.3829,2.3813,2.3847,2.3816,2.3829,2.3821,2.3783,2.3781,2.3835,2.3829,2.3789,2.3888,2.3833,2.3842,2.389,2.3906,2.3919,2.392,2.3722,0,0,0,0,0,2.3841,2.3865,2.3846,2.3898,2.39,2.3874,2.3885,2.3861,2.3862,2.3862,2.3852,2.3855,2.3876,2.389,2.3908,2.3975,2.3974,2.4009,2.4022,2.4033,2.4042,2.408,2.4097,2.3921,2.3921,2.3921,0,0,2.389,2.3882,2.3899,2.3913,2.3912,2.394,2.3875,2.3906,2.3926,2.3867,2.3911,2.3904,2.3905,2.3963,2.3988,2.396,2.409,2.4042,2.4051,2.4054,2.4089,2.4106,2.4121,2.3926,2.3925,2.3924,0,0,2.3995,2.399,2.4034,2.4034,2.4033,2.4016,2.4027,2.4016,2.401,2.4053,2.401,2.4034,2.407,2.4074,2.408,2.4189,2.4156,2.4196,2.4265,2.4303,2.4316,2.4329,2.437,2.4385,2.4204,2.4204,2.4204,0,2.4057,2.4095,2.4061,2.4096,2.4104,2.4052,2.4098,2.41,2.4105,2.4113,2.4082,2.4128,2.4124,2.4184,2.4211,2.4217,2.423,2.4197,2.4317,2.4329,2.434,2.4379,2.4395,2.4209,2.4209,2.4208,2.4208,0,2.4173,2.4201,2.4237,2.4244,2.4256,2.4296,2.427,2.4287,2.4263,2.4249,2.4296,2.429,2.4307,2.4319,2.4296,2.4377,2.436,2.4324,2.4268,2.4362,2.4399,2.4413,2.4217,2.4215,2.4213,2.4212,0,0,2.4326,2.4315,2.4329,2.4333,2.4329,2.435,2.4389,2.4406,2.4423,2.4429,2.4462,2.4495,2.4462,2.447,2.4446,2.4479,2.457,2.4439,2.4438,2.4465,2.4662,2.4691,2.4709,2.4547,2.4549,2.4552,2.4663,0,2.4429,2.4494,2.4466,2.4535,2.4562,2.4514,2.4548,2.4551,2.454,2.4562,2.455,2.4575,2.4528,2.4533,2.4563,2.4552,2.4609,2.4543,2.458,2.4581,2.4583,2.4727,2.4758,2.4863,2.4677,2.4679,2.4681,0,2.4557,2.457,2.4642,2.4636,2.4646,2.4678,2.4693,2.4714,2.4716,2.4706,2.4716,2.4686,2.4726,2.467,2.4726,2.4682,2.4695,2.4693,2.4696,2.47,2.4638,2.4737,2.4895,2.4912,2.4702,2.47,2.4699,0,2.4665,2.47,2.4748,2.4752,2.4746,2.477,2.4768,2.4768,2.4781,2.4794,2.4803,2.4821,2.4831,2.4846,2.4823,2.4784,2.4883,2.4824,2.4878,2.4879,2.4902,2.4901,2.5067,2.4907,2.4907,2.4907,2.4906,0,2.4785,2.4831,2.4797,2.4827,2.4879,2.4846,2.4898,2.4892,2.4892,2.4922,2.4881,2.4909,2.4875,2.4901,2.4883,2.4934,2.4938,2.4932,2.4927,2.4937,2.4938,2.4947,2.494,2.4911,2.491,2.4909,2.4908,0,2.4914,2.4893,2.4943,2.4933,2.4932,2.4971,2.4963,2.4992,2.4978,2.5016,2.5023,2.5003,2.5031,2.5009,2.5037,2.5024,2.5093,2.5076,2.5092,2.5088,2.5144,2.514,2.5322,2.5346,2.5169,2.5171,2.5172,0,2.4993,2.5028,2.5023,2.5039,2.5041,2.5068,2.5081,2.5051,2.5067,2.5074,2.5103,2.5128,2.5146,2.5195,2.5183,2.5205,2.519,2.5253,2.5193,2.5203,2.5195,2.5194,2.5198,2.5265,2.5267,2.5269,2.5271,0,2.5136,2.5124,2.5145,2.5163,2.5181,2.5193,2.5203,2.5219,2.5188,2.5209,2.5238,2.5253,2.5282,2.5308,2.5327,2.5326,2.5295,2.5289,2.5303,2.5315,2.5324,2.5322,2.5127,2.5285,2.5284,2.5283,2.5282,2.5281,2.5244,2.5274,2.5276,2.5301,2.5306,2.5316,2.5343,2.5334,2.5358,2.5379,2.536,2.5396,2.54,2.5421,2.5425,2.5454,2.5428,2.5448,2.5453,2.5459,2.5468,2.5318,2.5457,2.5456,2.5456,2.5455,2.5455,0,2.5387,2.5386,2.541,2.5425,2.5446,2.5414,2.5423,2.5444,2.5475,2.5482,2.5502,2.5537,2.5563,2.5554,2.5578,2.5602,2.5589,2.561,2.5609,2.561,2.5488,2.5475,2.5621,2.5621,2.5621,2.5621,2.5621,2.5621,2.5464,2.5514,2.5503,2.5556,2.5555,2.559,2.5599,2.5609,2.5615,2.5655,2.5677,2.5671,2.5672,2.5696,2.572,2.5716,2.5728,2.5755,2.5747,2.5634,2.5618,2.5603,2.559,2.5758,2.5758,2.5867,2.5868,2.5869]},{"header":{"parameterUnit":"m.s-1","parameterCategory":1,"la1":30.2991,"la2":30.254,"lo1":-89.0895,"lo2":-89.0444,"dy":0.0017,"dx":0.0017,"nx":28,"ny":28,"refTime":"2024-08-02T21:00:00:Z","depth":0,"parameterNumber":3,"parameterNumberName":"V-component_of_WINDS"},"data":[0,0,0,0,0,0,0,0,0,0,0,0,0,0,0,0,0,0,0,0,0,0,0,0,0,0,0,0,0,0,0,0,0,0,0,0,0,0,0,0,0,0,0,0,0,0,0,0,0,0,0,0,0,0,0,0,0,0,-1.6582,-1.6581,0,-1.6502,-1.6501,-1.65,-1.6478,-1.6479,-1.6479,-1.648,-1.6391,-1.6389,-1.6386,0,0,0,0,0,0,0,0,0,0,0,0,0,-1.6714,-1.6712,-1.6582,-1.6581,-1.658,-1.6502,-1.6501,-1.65,-1.6478,-1.6479,-1.6479,-1.648,-1.6392,-1.6389,-1.6386,0,0,0,0,0,0,0,0,0,0,0,0,0,-1.6647,-1.6711,-1.6583,-1.656,-1.6557,-1.6502,-1.6501,-1.6499,-1.6478,-1.6479,-1.6479,-1.648,-1.6393,-1.6389,-1.6385,-1.6344,0,0,-1.6372,-1.637,0,0,0,0,0,0,0,0,-1.6651,-1.6642,-1.6565,-1.6562,-1.6558,-1.6501,-1.6515,-1.6447,-1.6478,-1.6508,-1.648,-1.648,-1.6427,-1.642,-1.6403,-1.634,-1.6336,-1.6372,-1.6369,-1.6368,-1.6366,0,0,0,0,0,0,0,-1.6656,-1.6646,-1.655,-1.6563,-1.656,-1.6553,-1.6544,-1.6502,-1.6464,-1.6505,-1.6504,-1.6495,-1.6425,-1.6407,-1.6401,-1.6335,-1.6372,-1.6368,-1.6366,-1.6364,-1.6236,-1.6236,0,0,0,0,0,0,-1.6665,-1.665,-1.6553,-1.6548,-1.6608,-1.655,-1.654,-1.6518,-1.6464,-1.6457,-1.6494,-1.6494,-1.6414,-1.6406,-1.6398,-1.6347,-1.6368,-1.6364,-1.6361,-1.6237,-1.6236,-1.6235,0,0,0,0,0,0,-1.6668,-1.6656,-1.6556,-1.6598,-1.6585,-1.6547,-1.6523,-1.6516,-1.6498,-1.6456,-1.6449,-1.6483,-1.6414,-1.6403,-1.6358,-1.6344,-1.6362,-1.6358,-1.6238,-1.6237,-1.6236,-1.6246,0,0,0,0,0,0,-1.6672,-1.6658,-1.6642,-1.6598,-1.6583,-1.652,-1.6522,-1.6514,-1.6492,-1.6491,-1.6443,-1.6436,-1.6414,-1.6365,-1.6354,-1.6338,-1.6355,-1.6239,-1.6238,-1.6236,-1.6247,-1.6245,-1.6244,0,0,0,0,0,-1.6676,-1.6647,-1.6642,-1.663,-1.6564,-1.6519,-1.651,-1.6486,-1.6491,-1.6475,-1.6448,-1.6438,-1.6347,-1.636,-1.6348,-1.6331,-1.624,-1.6238,-1.6236,-1.6247,-1.6245,-1.6244,0,0,0,0,0,0,-1.6688,-1.6641,-1.6634,-1.659,-1.6559,-1.6515,-1.6494,-1.6485,-1.645,-1.645,-1.6421,-1.6411,-1.6368,-1.6345,-1.636,-1.6289,-1.6293,-1.6289,-1.6306,-1.6304,-1.6303,-1.6309,-1.6351,0,0,0,0,0,-1.6686,-1.6655,-1.6615,-1.6579,-1.6564,-1.6532,-1.6512,-1.6497,-1.6462,-1.6448,-1.6418,-1.6384,-1.6348,-1.6325,-1.6289,-1.6244,-1.6233,-1.6226,-1.6224,-1.6223,-1.622,-1.6195,-1.6191,-1.6229,-1.6229,-1.6229,0,0,-1.668,-1.665,-1.6632,-1.6581,-1.6555,-1.6523,-1.6521,-1.6486,-1.6462,-1.6442,-1.6399,-1.6376,-1.6336,-1.6291,-1.6269,-1.627,-1.6207,-1.6221,-1.622,-1.6217,-1.6193,-1.6189,-1.6186,-1.6228,-1.6228,-1.6228,0,0,-1.6653,-1.6628,-1.6597,-1.6571,-1.6533,-1.6512,-1.6505,-1.6463,-1.6448,-1.6404,-1.639,-1.6359,-1.6297,-1.627,-1.6248,-1.6214,-1.6203,-1.6203,-1.6195,-1.6171,-1.6168,-1.6166,-1.6154,-1.615,-1.6199,-1.6199,-1.6199,0,-1.665,-1.6603,-1.6581,-1.6548,-1.6526,-1.651,-1.6478,-1.6453,-1.6405,-1.6389,-1.6392,-1.6316,-1.6287,-1.6236,-1.6228,-1.6211,-1.6201,-1.6208,-1.6171,-1.6168,-1.6165,-1.6153,-1.6149,-1.6199,-1.6199,-1.6199,-1.6199,0,-1.6602,-1.6569,-1.6548,-1.6505,-1.648,-1.6447,-1.642,-1.6397,-1.6385,-1.6364,-1.632,-1.6286,-1.6244,-1.6231,-1.6217,-1.6178,-1.618,-1.6177,-1.618,-1.6162,-1.6151,-1.6146,-1.62,-1.62,-1.62,-1.62,0,0,-1.6579,-1.6526,-1.6518,-1.6499,-1.6456,-1.643,-1.6397,-1.6358,-1.634,-1.6307,-1.6278,-1.6228,-1.6225,-1.62,-1.6184,-1.6163,-1.6139,-1.6162,-1.6161,-1.616,-1.6095,-1.6098,-1.6093,-1.6132,-1.6131,-1.6131,-1.6099,0,-1.6547,-1.649,-1.647,-1.6421,-1.6391,-1.6376,-1.6347,-1.6318,-1.6297,-1.6268,-1.6244,-1.621,-1.6209,-1.6194,-1.6173,-1.6147,-1.6126,-1.6148,-1.6104,-1.6103,-1.6115,-1.6087,-1.609,-1.6061,-1.6094,-1.6093,-1.6093,0,-1.6502,-1.6472,-1.6422,-1.6385,-1.6371,-1.6346,-1.631,-1.6282,-1.6248,-1.6235,-1.6208,-1.6194,-1.6158,-1.6164,-1.6114,-1.613,-1.6111,-1.6096,-1.6094,-1.6089,-1.6097,-1.6082,-1.6051,-1.6047,-1.6085,-1.6086,-1.6086,0,-1.6492,-1.6438,-1.6401,-1.6385,-1.6341,-1.6324,-1.6304,-1.6271,-1.625,-1.6218,-1.6203,-1.6167,-1.6146,-1.6118,-1.6094,-1.61,-1.6046,-1.605,-1.6034,-1.6034,-1.6022,-1.6023,-1.5989,-1.601,-1.601,-1.601,-1.601,0,-1.6459,-1.6429,-1.6396,-1.6374,-1.6339,-1.6317,-1.6283,-1.6262,-1.6234,-1.6206,-1.619,-1.6164,-1.6134,-1.6104,-1.6084,-1.6046,-1.6037,-1.6025,-1.602,-1.6026,-1.6028,-1.6013,-1.6015,-1.6009,-1.6009,-1.6009,-1.601,0,-1.6441,-1.6418,-1.6377,-1.634,-1.633,-1.6306,-1.6274,-1.6251,-1.6231,-1.6196,-1.6187,-1.6154,-1.6118,-1.6092,-1.6044,-1.6032,-1.5991,-1.5986,-1.6003,-1.6001,-1.5986,-1.5988,-1.5941,-1.5934,-1.596,-1.596,-1.5959,0,-1.6421,-1.6398,-1.6359,-1.6341,-1.6322,-1.6292,-1.6271,-1.6248,-1.6227,-1.6188,-1.6169,-1.6133,-1.6103,-1.6046,-1.6017,-1.5982,-1.5976,-1.5962,-1.597,-1.5978,-1.5976,-1.5978,-1.5976,-1.596,-1.596,-1.596,-1.596,0,-1.639,-1.638,-1.6351,-1.6319,-1.6295,-1.6268,-1.624,-1.6225,-1.6197,-1.6174,-1.6138,-1.6115,-1.6068,-1.6032,-1.5994,-1.5972,-1.5961,-1.5958,-1.5952,-1.5958,-1.597,-1.5964,-1.6001,-1.5959,-1.5959,-1.5959,-1.5959,-1.5959,-1.637,-1.635,-1.632,-1.6289,-1.6266,-1.6241,-1.6219,-1.6197,-1.6168,-1.6129,-1.6117,-1.6081,-1.6048,-1.5996,-1.5975,-1.5945,-1.5945,-1.5936,-1.5934,-1.5933,-1.5934,-1.5975,-1.5938,-1.5938,-1.5938,-1.5938,-1.5938,0,-1.6338,-1.6319,-1.6291,-1.6254,-1.623,-1.6224,-1.6193,-1.6173,-1.6142,-1.6113,-1.6085,-1.6044,-1.601,-1.598,-1.5944,-1.5926,-1.592,-1.5917,-1.5918,-1.5914,-1.5935,-1.5944,-1.5923,-1.5923,-1.5923,-1.5923,-1.5923,-1.5923,-1.6319,-1.6284,-1.6272,-1.6226,-1.6206,-1.6172,-1.6155,-1.6132,-1.6109,-1.6066,-1.6038,-1.602,-1.5991,-1.5953,-1.5921,-1.5913,-1.59,-1.5899,-1.589,-1.591,-1.5912,-1.5914,-1.5922,-1.5896,-1.5896,-1.5871,-1.587,-1.587]}]]